When you browse on this site, cookies collect data to enhance your experience and personalize the content and advertising you see.
Visit our Privacy Policy to learn more. By continuing to use the site, you agree to this use of cookies and data.
  • In Hungary
  • List of Countries
  • For 7 days
  • Water Temperature
  • Weather Map
  • News
  • Weather Widgets
  • user-avatar
    Login

    Hourly Weather Sernyky

    Today, 6 April, Monday

    Time Temperature Precipitation Wind Pressure Humidity
    00:00 +3°C° 0 mm 0 mps 763 mmHg 50%
    01:00 +3°C° 0 mm 0 mps 763 mmHg 51%
    02:00 +3°C° 0 mm 0 mps 764 mmHg 52%
    03:00 +3°C° 0 mm 1 mps 764 mmHg 54%
    04:00 +3°C° 0 mm 1 mps 764 mmHg 55%
    05:00 +3°C° 0 mm 1 mps 764 mmHg 56%
    06:00 +4°C° 0 mm 1 mps 764 mmHg 54%
    07:00 +5°C° 0 mm 1 mps 764 mmHg 51%
    08:00 +7°C° 0 mm 1 mps 764 mmHg 49%
    09:00 +7°C° 0 mm 2 mps 764 mmHg 44%
    10:00 +9°C° 0 mm 2 mps 765 mmHg 39%
    11:00 +12°C° 0 mm 2 mps 765 mmHg 34%
    12:00 +13°C° 0 mm 2 mps 764 mmHg 32%
    13:00 +13°C° 0 mm 2 mps 764 mmHg 30%
    14:00 +14°C° 0 mm 2 mps 764 mmHg 28%
    15:00 +14°C° 0 mm 2 mps 764 mmHg 30%
    16:00 +14°C° 0 mm 2 mps 763 mmHg 31%
    17:00 +14°C° 0 mm 2 mps 763 mmHg 33%
    18:00 +12°C° 0 mm 2 mps 763 mmHg 37%
    19:00 +9°C° 0 mm 2 mps 763 mmHg 41%
    20:00 +7°C° 0 mm 2 mps 763 mmHg 46%
    21:00 +7°C° 0 mm 2 mps 763 mmHg 47%
    22:00 +6°C° 0 mm 2 mps 763 mmHg 49%
    23:00 +6°C° 0 mm 2 mps 763 mmHg 50%

    Tomorrow, 7 April, Tuesday

    Time Temperature Precipitation Wind Pressure Humidity
    00:00 +5°C° 0 mm 2 mps 763 mmHg 52%
    01:00 +5°C° 0 mm 2 mps 763 mmHg 54%
    02:00 +4°C° 0 mm 2 mps 763 mmHg 55%
    03:00 +4°C° 0 mm 2 mps 763 mmHg 57%
    04:00 +4°C° 0 mm 2 mps 763 mmHg 58%
    05:00 +3°C° 0 mm 2 mps 763 mmHg 59%
    06:00 +4°C° 0 mm 2 mps 763 mmHg 57%
    07:00 +5°C° 0 mm 3 mps 763 mmHg 54%
    08:00 +7°C° 0 mm 3 mps 763 mmHg 51%
    09:00 +9°C° 0 mm 3 mps 763 mmHg 46%
    10:00 +11°C° 0 mm 4 mps 763 mmHg 41%
    11:00 +13°C° 0 mm 4 mps 763 mmHg 37%
    12:00 +14°C° 0 mm 4 mps 762 mmHg 35%
    13:00 +15°C° 0 mm 4 mps 762 mmHg 34%
    14:00 +17°C° 0 mm 3 mps 762 mmHg 33%
    15:00 +17°C° 0 mm 3 mps 761 mmHg 35%
    16:00 +17°C° 0 mm 3 mps 761 mmHg 37%
    17:00 +17°C° 0 mm 2 mps 761 mmHg 38%
    18:00 +15°C° 0 mm 2 mps 760 mmHg 44%
    19:00 +13°C° 0 mm 2 mps 760 mmHg 50%
    20:00 +10°C° 0 mm 2 mps 760 mmHg 55%
    21:00 +9°C° 0 mm 2 mps 760 mmHg 57%
    22:00 +9°C° 0 mm 2 mps 760 mmHg 59%
    23:00 +8°C° 0 mm 3 mps 760 mmHg 61%

    Day after tomorrow, 8 April, Wednesday

    Time Temperature Precipitation Wind Pressure Humidity
    00:00 +8°C° 0 mm 3 mps 760 mmHg 63%
    01:00 +7°C° 0 mm 3 mps 759 mmHg 64%
    02:00 +7°C° 0 mm 2 mps 759 mmHg 65%
    03:00 +7°C° 0 mm 2 mps 759 mmHg 67%
    04:00 +6°C° 0 mm 2 mps 759 mmHg 69%
    05:00 +6°C° 0 mm 2 mps 759 mmHg 71%
    06:00 +7°C° 0 mm 2 mps 759 mmHg 69%
    07:00 +8°C° 0 mm 2 mps 759 mmHg 67%
    08:00 +9°C° 0 mm 2 mps 759 mmHg 65%
    09:00 +12°C° 0 mm 2 mps 759 mmHg 62%
    10:00 +14°C° 0 mm 2 mps 759 mmHg 59%
    11:00 +16°C° 0 mm 2 mps 758 mmHg 56%
    12:00 +17°C° 0 mm 2 mps 758 mmHg 53%
    13:00 +17°C° 0 mm 2 mps 758 mmHg 51%
    14:00 +18°C° 0 mm 3 mps 758 mmHg 48%
    15:00 +18°C° 0 mm 2 mps 757 mmHg 48%
    16:00 +18°C° 0 mm 2 mps 757 mmHg 47%
    17:00 +18°C° 0 mm 2 mps 756 mmHg 46%
    18:00 +16°C° 0 mm 2 mps 756 mmHg 50%
    19:00 +14°C° 0 mm 1 mps 756 mmHg 54%
    20:00 +12°C° 0 mm 1 mps 756 mmHg 58%
    21:00 +11°C° 0 mm 1 mps 756 mmHg 58%
    22:00 +11°C° 0 mm 1 mps 755 mmHg 59%
    23:00 +10°C° 0 mm 1 mps 755 mmHg 59%

    9 April, Thursday

    Time Temperature Precipitation Wind Pressure Humidity
    00:00 +10°C° 0 mm 1 mps 755 mmHg 62%
    01:00 +10°C° 0 mm 1 mps 755 mmHg 66%
    02:00 +9°C° 0 mm 1 mps 755 mmHg 69%
    03:00 +9°C° 0 mm 1 mps 754 mmHg 73%
    04:00 +9°C° 0 mm 1 mps 754 mmHg 77%
    05:00 +9°C° 0 mm 1 mps 754 mmHg 82%
    06:00 +9°C° 0 mm 2 mps 754 mmHg 77%
    07:00 +10°C° 0 mm 2 mps 753 mmHg 72%
    08:00 +12°C° 0 mm 2 mps 753 mmHg 67%
    09:00 +13°C° 0 mm 3 mps 753 mmHg 58%
    10:00 +16°C° 0 mm 3 mps 753 mmHg 49%
    11:00 +18°C° 0 mm 3 mps 752 mmHg 40%
    12:00 +19°C° 0 mm 4 mps 752 mmHg 38%
    13:00 +19°C° 0 mm 4 mps 751 mmHg 35%
    14:00 +20°C° 0 mm 4 mps 751 mmHg 33%
    15:00 +20°C° 0 mm 4 mps 750 mmHg 34%
    16:00 +19°C° 0 mm 4 mps 749 mmHg 36%
    17:00 +19°C° 0 mm 4 mps 749 mmHg 38%
    18:00 +17°C° 0 mm 3 mps 748 mmHg 44%
    19:00 +14°C° 0 mm 3 mps 748 mmHg 50%
    20:00 +13°C° 0 mm 3 mps 748 mmHg 56%
    21:00 +12°C° 0 mm 3 mps 748 mmHg 58%
    22:00 +11°C° 0 mm 3 mps 748 mmHg 61%
    23:00 +11°C° 0 mm 3 mps 747 mmHg 63%

    10 April, Friday

    Time Temperature Precipitation Wind Pressure Humidity
    00:00 +10°C° 0 mm 3 mps 747 mmHg 66%
    01:00 +9°C° 0 mm 3 mps 747 mmHg 69%
    02:00 +9°C° 0 mm 3 mps 747 mmHg 73%
    03:00 +9°C° 0.1 mm 3 mps 748 mmHg 76%
    04:00 +9°C° 0.1 mm 3 mps 748 mmHg 80%
    05:00 +8°C° 0.1 mm 3 mps 748 mmHg 84%
    06:00 +7°C° 0.1 mm 4 mps 748 mmHg 78%
    07:00 +7°C° 0.1 mm 5 mps 749 mmHg 72%
    08:00 +7°C° 0.1 mm 6 mps 749 mmHg 66%
    09:00 +8°C° 0 mm 6 mps 750 mmHg 63%
    10:00 +8°C° 0 mm 7 mps 750 mmHg 61%
    11:00 +9°C° 0 mm 7 mps 750 mmHg 58%
    12:00 +9°C° 0 mm 6 mps 751 mmHg 54%
    13:00 +10°C° 0 mm 6 mps 751 mmHg 50%
    14:00 +10°C° 0 mm 5 mps 751 mmHg 46%
    15:00 +10°C° 0 mm 5 mps 751 mmHg 44%
    16:00 +10°C° 0 mm 5 mps 751 mmHg 42%
    17:00 +10°C° 0 mm 5 mps 751 mmHg 39%
    18:00 +10°C° 0 mm 4 mps 752 mmHg 43%
    19:00 +8°C° 0 mm 3 mps 752 mmHg 46%
    20:00 +6°C° 0 mm 2 mps 752 mmHg 50%
    21:00 +6°C° 0 mm 2 mps 752 mmHg 52%
    22:00 +5°C° 0 mm 2 mps 752 mmHg 53%
    23:00 +5°C° 0 mm 2 mps 752 mmHg 55%

    11 April, Saturday

    Time Temperature Precipitation Wind Pressure Humidity
    00:00 +4°C° 0 mm 2 mps 753 mmHg 58%
    01:00 +4°C° 0 mm 2 mps 753 mmHg 62%
    02:00 +3°C° 0 mm 2 mps 753 mmHg 65%
    03:00 +3°C° 0 mm 2 mps 753 mmHg 70%
    04:00 +2°C° 0 mm 2 mps 753 mmHg 76%
    05:00 +2°C° 0 mm 2 mps 754 mmHg 81%
    06:00 +3°C° 0 mm 2 mps 754 mmHg 75%
    07:00 +3°C° 0 mm 2 mps 754 mmHg 68%
    08:00 +4°C° 0 mm 2 mps 754 mmHg 62%
    09:00 +5°C° 0 mm 2 mps 754 mmHg 54%
    10:00 +7°C° 0 mm 2 mps 754 mmHg 47%
    11:00 +8°C° 0 mm 2 mps 754 mmHg 39%
    12:00 +9°C° 0 mm 2 mps 754 mmHg 36%
    13:00 +9°C° 0 mm 2 mps 754 mmHg 34%
    14:00 +10°C° 0 mm 2 mps 754 mmHg 31%
    15:00 +10°C° 0 mm 2 mps 753 mmHg 32%
    16:00 +10°C° 0 mm 2 mps 753 mmHg 33%
    17:00 +11°C° 0 mm 1 mps 752 mmHg 33%
    18:00 +8°C° 0 mm 2 mps 752 mmHg 37%
    19:00 +7°C° 0 mm 2 mps 752 mmHg 40%
    20:00 +6°C° 0 mm 2 mps 752 mmHg 44%
    21:00 +5°C° 0 mm 2 mps 752 mmHg 46%
    22:00 +4°C° 0 mm 3 mps 752 mmHg 48%
    23:00 +3°C° 0 mm 3 mps 751 mmHg 50%
    Show more